Time,TemperatureF,DewpointF,PressureIn,WindDirection,WindDirectionDegrees,WindSpeedMPH,WindSpeedGustMPH,Humidity,HourlyPrecipIn,Conditions,Clouds,dailyrainin,SolarRadiationWatts/m^2,SoftwareType,DateUTC
2013-03-11 00:00:00,61.3,59.6,29.98,NNW,343,3.5,3.5,94,0.00,RA,,0.00,0.0,WeatherDisplay:10.37,2013-03-11 10:00:00,
2013-03-11 00:05:00,61.4,59.7,29.98,NNW,341,3.5,3.5,94,0.00,RA,,0.00,0.0,WeatherDisplay:10.37,2013-03-11 10:05:00,
2013-03-11 00:10:00,61.4,59.7,29.97,NNW,338,4.6,4.6,94,0.00,,,0.00,0.0,WeatherDisplay:10.37,2013-03-11 10:10:00,
2013-03-11 00:15:00,61.5,59.8,29.97,NNW,345,3.5,3.5,94,0.00,,,0.00,0.0,WeatherDisplay:10.37,2013-03-11 10:15:00,
2013-03-11 00:20:00,61.5,59.8,29.97,NNW,328,3.5,3.5,94,0.00,,,0.00,0.0,WeatherDisplay:10.37,2013-03-11 10:20:00,
2013-03-11 00:25:00,61.5,59.8,29.97,North,355,3.5,3.5,94,0.00,,,0.00,0.0,WeatherDisplay:10.37,2013-03-11 10:25:00,
2013-03-11 00:30:00,61.6,59.6,29.97,North,355,3.5,3.5,93,0.00,,,0.00,0.0,WeatherDisplay:10.37,2013-03-11 10:30:00,
2013-03-11 00:35:00,61.7,59.7,29.97,North,350,3.5,3.5,93,0.00,,,0.00,0.0,WeatherDisplay:10.37,2013-03-11 10:35:00,
2013-03-11 00:40:00,61.7,59.7,29.97,NNW,338,2.3,2.3,93,0.00,,,0.00,0.0,WeatherDisplay:10.37,2013-03-11 10:40:00,
2013-03-11 00:45:00,61.7,59.7,29.97,NNW,341,3.5,3.5,93,0.00,,,0.00,0.0,WeatherDisplay:10.37,2013-03-11 10:45:00,
2013-03-11 00:50:00,61.7,59.7,29.96,North,351,3.5,3.5,93,0.00,,,0.00,0.0,WeatherDisplay:10.37,2013-03-11 10:50:00,
2013-03-11 00:55:00,61.8,59.8,29.96,NNE,26,3.5,3.5,93,0.00,,,0.00,0.0,WeatherDisplay:10.37,2013-03-11 10:55:00,
2013-03-11 01:00:00,61.9,59.9,29.96,North,350,4.0,4.0,93,0.00,,,0.00,0.0,WeatherDisplay:10.37,2013-03-11 11:00:00,
2013-03-11 01:05:00,61.9,59.9,29.96,North,355,3.5,3.5,93,0.00,,,0.00,0.0,WeatherDisplay:10.37,2013-03-11 11:05:00,
2013-03-11 01:10:00,62.0,60.0,29.96,NNW,340,3.0,3.0,93,0.00,,,0.00,0.0,WeatherDisplay:10.37,2013-03-11 11:10:00,
2013-03-11 01:15:00,62.0,60.0,29.96,North,355,3.5,3.5,93,0.00,,,0.00,0.0,WeatherDisplay:10.37,2013-03-11 11:15:00,
2013-03-11 01:20:00,62.0,60.0,29.96,NNE,22,3.5,3.5,93,0.00,,,0.00,0.0,WeatherDisplay:10.37,2013-03-11 11:20:00,
2013-03-11 01:25:00,62.1,60.1,29.96,North,360,3.5,3.5,93,0.00,,,0.00,0.0,WeatherDisplay:10.37,2013-03-11 11:25:00,
2013-03-11 01:30:00,62.0,60.0,29.96,NNW,338,2.3,2.3,93,0.00,,,0.00,0.0,WeatherDisplay:10.37,2013-03-11 11:30:00,
2013-03-11 01:35:00,61.9,59.9,29.96,NNW,342,3.5,3.5,93,0.00,,,0.00,0.0,WeatherDisplay:10.37,2013-03-11 11:35:00,
2013-03-11 01:40:00,61.7,59.4,29.95,NNW,333,3.5,3.5,92,0.00,,,0.00,0.0,WeatherDisplay:10.37,2013-03-11 11:40:00,
2013-03-11 01:45:00,61.6,59.3,29.95,NNW,333,2.3,2.3,92,0.00,,,0.00,0.0,WeatherDisplay:10.37,2013-03-11 11:45:00,
2013-03-11 01:50:00,61.4,59.1,29.95,NNW,348,3.5,3.5,92,0.00,,,0.00,0.0,WeatherDisplay:10.37,2013-03-11 11:50:00,
2013-03-11 01:55:00,61.3,59.0,29.95,NNW,347,3.5,3.5,92,0.00,,,0.00,0.0,WeatherDisplay:10.37,2013-03-11 11:55:00,
2013-03-11 02:00:00,61.2,58.9,29.95,NNW,345,2.0,2.0,92,0.00,,,0.00,0.0,WeatherDisplay:10.37,2013-03-11 12:00:00,
2013-03-11 02:05:00,61.1,58.8,29.95,NNW,345,2.3,2.3,92,0.00,,,0.00,0.0,WeatherDisplay:10.37,2013-03-11 12:05:00,
2013-03-11 02:10:00,61.1,58.8,29.95,NNW,345,2.3,2.3,92,0.00,,,0.00,0.0,WeatherDisplay:10.37,2013-03-11 12:10:00,
2013-03-11 02:15:00,61.0,58.7,29.94,NNW,345,2.3,2.3,92,0.00,,,0.00,0.0,WeatherDisplay:10.37,2013-03-11 12:15:00,
2013-03-11 02:20:00,60.9,58.6,29.94,NNW,342,3.5,3.5,92,0.00,,,0.00,0.0,WeatherDisplay:10.37,2013-03-11 12:20:00,
2013-03-11 02:25:00,60.9,58.6,29.94,North,351,3.5,3.5,92,0.00,,,0.00,0.0,WeatherDisplay:10.37,2013-03-11 12:25:00,
2013-03-11 02:30:00,60.9,58.6,29.94,NNW,343,3.5,3.5,92,0.00,,,0.00,0.0,WeatherDisplay:10.37,2013-03-11 12:30:00,
2013-03-11 02:35:00,60.9,58.6,29.94,NNW,344,3.5,3.5,92,0.00,,,0.00,0.0,WeatherDisplay:10.37,2013-03-11 12:35:00,
2013-03-11 02:40:00,60.9,58.6,29.94,NNW,344,1.1,1.1,92,0.00,,,0.00,0.0,WeatherDisplay:10.37,2013-03-11 12:40:00,
2013-03-11 02:45:00,61.0,58.7,29.94,NNW,341,3.5,3.5,92,0.00,,,0.00,0.0,WeatherDisplay:10.37,2013-03-11 12:45:00,
2013-03-11 02:50:00,61.0,58.7,29.93,NNW,336,3.5,3.5,92,0.00,,,0.00,0.0,WeatherDisplay:10.37,2013-03-11 12:50:00,
2013-03-11 02:55:00,61.1,58.8,29.93,North,360,4.6,4.6,92,0.00,,,0.00,0.0,WeatherDisplay:10.37,2013-03-11 12:55:00,
2013-03-11 03:00:00,61.2,58.9,29.93,NNW,346,3.5,3.5,92,0.00,,,0.00,0.0,WeatherDisplay:10.37,2013-03-11 13:00:00,
2013-03-11 03:05:00,61.2,58.9,29.93,NNE,28,3.5,3.5,92,0.00,,,0.00,0.0,WeatherDisplay:10.37,2013-03-11 13:05:00,
2013-03-11 03:10:00,61.3,59.0,29.93,North,360,3.5,3.5,92,0.00,,,0.00,0.0,WeatherDisplay:10.37,2013-03-11 13:10:00,
2013-03-11 03:15:00,61.3,59.0,29.93,North,360,2.3,2.3,92,0.00,,,0.00,0.0,WeatherDisplay:10.37,2013-03-11 13:15:00,
2013-03-11 03:20:00,61.3,59.0,29.93,NNW,341,3.5,3.5,92,0.00,,,0.00,0.0,WeatherDisplay:10.37,2013-03-11 13:20:00,
2013-03-11 03:25:00,61.3,59.0,29.92,NNW,340,3.5,3.5,92,0.00,,,0.00,0.0,WeatherDisplay:10.37,2013-03-11 13:25:00,
2013-03-11 03:30:00,61.3,59.0,29.92,NNE,17,2.3,2.3,92,0.00,,,0.00,0.0,WeatherDisplay:10.37,2013-03-11 13:30:00,
2013-03-11 03:35:00,61.4,59.1,29.92,North,5,4.6,4.6,92,0.00,,,0.00,0.0,WeatherDisplay:10.37,2013-03-11 13:35:00,
2013-03-11 03:40:00,61.4,59.1,29.92,North,355,2.3,0.0,92,0.00,,,0.00,0.0,WeatherDisplay:10.37,2013-03-11 13:40:00,
2013-03-11 03:45:00,61.4,58.7,29.92,NW,319,1.1,1.1,91,0.00,,,0.00,0.0,WeatherDisplay:10.37,2013-03-11 13:45:00,
2013-03-11 03:50:00,61.4,58.7,29.92,NW,319,3.5,3.5,91,0.00,,,0.00,0.0,WeatherDisplay:10.37,2013-03-11 13:50:00,
2013-03-11 03:55:00,61.4,58.7,29.92,NW,319,0.0,0.0,91,0.00,,,0.00,0.0,WeatherDisplay:10.37,2013-03-11 13:55:00,
2013-03-11 04:00:00,61.3,58.7,29.92,NW,319,2.0,2.0,91,0.00,,,0.00,0.0,WeatherDisplay:10.37,2013-03-11 14:00:00,
2013-03-11 04:05:00,61.1,58.5,29.92,NW,320,2.3,2.3,91,0.00,,,0.00,0.0,WeatherDisplay:10.37,2013-03-11 14:05:00,
2013-03-11 04:10:00,61.0,58.4,29.92,NW,315,2.3,2.3,91,0.00,,,0.00,0.0,WeatherDisplay:10.37,2013-03-11 14:10:00,
2013-03-11 04:15:00,60.9,58.3,29.93,NW,315,0.0,0.0,91,0.00,,,0.00,0.0,WeatherDisplay:10.37,2013-03-11 14:15:00,
2013-03-11 04:20:00,60.8,58.2,29.92,NW,317,2.3,2.3,91,0.00,,,0.00,0.0,WeatherDisplay:10.37,2013-03-11 14:20:00,
2013-03-11 04:25:00,60.7,58.1,29.92,NNW,341,3.5,3.5,91,0.00,,,0.00,0.0,WeatherDisplay:10.37,2013-03-11 14:25:00,
2013-03-11 04:30:00,60.6,58.0,29.93,NW,324,3.5,3.5,91,0.00,,,0.00,0.0,WeatherDisplay:10.37,2013-03-11 14:30:00,
2013-03-11 04:35:00,60.5,57.6,29.93,NW,324,0.0,0.4,90,0.00,,,0.00,0.0,WeatherDisplay:10.37,2013-03-11 14:35:00,
2013-03-11 04:40:00,60.4,57.5,29.93,NW,324,0.0,0.0,90,0.00,,,0.00,0.0,WeatherDisplay:10.37,2013-03-11 14:40:00,
2013-03-11 04:45:00,60.4,57.5,29.93,NW,324,0.0,0.0,90,0.00,,,0.00,0.0,WeatherDisplay:10.37,2013-03-11 14:45:00,
2013-03-11 04:50:00,60.3,57.4,29.93,NNW,329,3.5,3.5,90,0.00,,,0.00,0.0,WeatherDisplay:10.37,2013-03-11 14:50:00,
2013-03-11 04:55:00,60.3,57.4,29.92,NNW,338,3.0,3.0,90,0.00,,,0.00,0.0,WeatherDisplay:10.37,2013-03-11 14:55:00,
2013-03-11 05:00:00,60.1,57.2,29.93,North,351,2.3,0.0,90,0.00,,,0.00,0.0,WeatherDisplay:10.37,2013-03-11 15:00:00,
2013-03-11 05:05:00,60.1,57.2,29.93,North,351,3.5,3.5,90,0.00,,,0.00,0.0,WeatherDisplay:10.37,2013-03-11 15:05:00,
2013-03-11 05:10:00,60.0,57.1,29.93,North,351,2.3,2.3,90,0.00,,,0.00,0.0,WeatherDisplay:10.37,2013-03-11 15:10:00,
2013-03-11 05:15:00,60.0,57.1,29.93,North,351,3.5,3.5,90,0.00,,,0.00,0.0,WeatherDisplay:10.37,2013-03-11 15:15:00,
2013-03-11 05:20:00,60.0,57.4,29.93,North,351,2.3,2.3,91,0.00,,,0.00,0.0,WeatherDisplay:10.37,2013-03-11 15:20:00,
2013-03-11 05:25:00,60.0,57.4,29.93,North,351,0.0,0.0,91,0.00,,,0.00,0.0,WeatherDisplay:10.37,2013-03-11 15:25:00,
2013-03-11 05:30:00,59.9,57.3,29.93,North,351,2.3,2.3,91,0.00,,,0.00,0.0,WeatherDisplay:10.37,2013-03-11 15:30:00,
2013-03-11 05:35:00,59.9,57.3,29.94,North,351,3.5,3.5,91,0.00,,,0.00,0.0,WeatherDisplay:10.37,2013-03-11 15:35:00,
2013-03-11 05:40:00,59.9,57.3,29.93,North,350,3.5,3.5,91,0.00,,,0.00,0.0,WeatherDisplay:10.37,2013-03-11 15:40:00,
2013-03-11 05:45:00,60.0,57.4,29.94,North,351,3.5,3.5,91,0.00,,,0.00,0.0,WeatherDisplay:10.37,2013-03-11 15:45:00,
2013-03-11 05:50:00,60.0,57.4,29.94,North,350,3.5,3.5,91,0.00,,,0.00,0.0,WeatherDisplay:10.37,2013-03-11 15:50:00,
2013-03-11 05:55:00,60.1,57.5,29.94,North,350,3.5,3.5,91,0.00,,,0.00,0.0,WeatherDisplay:10.37,2013-03-11 15:55:00,
2013-03-11 06:00:00,60.1,57.5,29.94,North,350,3.5,3.5,91,0.00,,,0.00,0.0,WeatherDisplay:10.37,2013-03-11 16:00:00,
2013-03-11 06:05:00,60.1,57.5,29.94,North,350,3.5,3.5,91,0.00,,,0.00,0.0,WeatherDisplay:10.37,2013-03-11 16:05:00,
2013-03-11 06:10:00,60.1,57.5,29.94,NNW,344,3.5,3.5,91,0.00,,,0.00,0.0,WeatherDisplay:10.37,2013-03-11 16:10:00,
2013-03-11 06:15:00,60.1,57.5,29.95,NNW,346,3.5,3.5,91,0.00,,,0.00,0.0,WeatherDisplay:10.37,2013-03-11 16:15:00,
2013-03-11 06:20:00,60.2,57.6,29.95,NNW,343,4.0,4.0,91,0.00,,,0.00,0.0,WeatherDisplay:10.37,2013-03-11 16:20:00,
2013-03-11 06:25:00,60.2,57.6,29.96,NNW,340,2.3,2.3,91,0.00,,,0.00,0.0,WeatherDisplay:10.37,2013-03-11 16:25:00,
2013-03-11 06:30:00,60.2,57.6,29.96,NNW,342,3.5,3.5,91,0.00,,,0.00,0.0,WeatherDisplay:10.37,2013-03-11 16:30:00,
2013-03-11 06:35:00,60.2,57.3,29.96,NNW,342,3.5,3.5,90,0.00,,,0.00,0.0,WeatherDisplay:10.37,2013-03-11 16:35:00,
2013-03-11 06:40:00,60.2,57.3,29.96,NNW,342,2.0,2.0,90,0.00,,,0.00,0.0,WeatherDisplay:10.37,2013-03-11 16:40:00,
2013-03-11 06:45:00,60.1,57.2,29.97,NNW,342,2.3,2.3,90,0.00,,,0.00,7.0,WeatherDisplay:10.37,2013-03-11 16:45:00,
2013-03-11 06:50:00,60.2,57.3,29.97,NNW,342,1.1,1.1,90,0.00,CLR,,0.00,11.0,WeatherDisplay:10.37,2013-03-11 16:50:00,
2013-03-11 06:55:00,60.1,57.2,29.97,NNW,342,1.1,1.1,90,0.00,FEW,,0.00,14.0,WeatherDisplay:10.37,2013-03-11 16:55:00,
2013-03-11 07:00:00,60.1,57.2,29.97,NNW,342,1.1,1.1,90,0.00,SCT,,0.00,19.0,WeatherDisplay:10.37,2013-03-11 17:00:00,
2013-03-11 07:05:00,60.2,57.3,29.97,NNW,342,1.1,0.0,90,0.00,SCT,,0.00,25.0,WeatherDisplay:10.37,2013-03-11 17:05:00,
2013-03-11 07:10:00,60.2,57.3,29.98,NNW,342,2.3,2.3,90,0.00,BKN,,0.00,28.0,WeatherDisplay:10.37,2013-03-11 17:10:00,
2013-03-11 07:15:00,60.3,57.4,29.98,NNW,342,2.3,0.0,90,0.00,BKN,,0.00,33.0,WeatherDisplay:10.37,2013-03-11 17:15:00,
2013-03-11 07:20:00,60.4,57.5,29.98,NNW,342,3.5,3.5,90,0.00,CLR,,0.00,76.0,WeatherDisplay:10.37,2013-03-11 17:20:00,
2013-03-11 07:25:00,60.6,58.0,29.98,NNW,342,3.5,3.5,91,0.00,CLR,,0.00,93.0,WeatherDisplay:10.37,2013-03-11 17:25:00,
2013-03-11 07:30:00,60.8,58.2,29.98,NNW,342,0.0,0.0,91,0.00,CLR,,0.00,107.0,WeatherDisplay:10.37,2013-03-11 17:30:00,
2013-03-11 07:35:00,61.1,58.5,29.98,NNW,348,1.1,1.1,91,0.00,CLR,,0.00,127.0,WeatherDisplay:10.37,2013-03-11 17:35:00,
2013-03-11 07:40:00,61.6,58.9,29.98,NNW,348,2.3,2.3,91,0.00,CLR,,0.00,149.0,WeatherDisplay:10.37,2013-03-11 17:40:00,
2013-03-11 07:45:00,62.0,59.3,29.98,NE,51,3.5,3.5,91,0.00,CLR,,0.00,171.0,WeatherDisplay:10.37,2013-03-11 17:45:00,
2013-03-11 07:50:00,62.9,60.2,29.99,NE,44,3.5,3.5,91,0.00,CLR,,0.00,193.0,WeatherDisplay:10.37,2013-03-11 17:50:00,
2013-03-11 07:55:00,63.7,60.4,29.99,North,10,5.0,5.0,89,0.00,CLR,,0.00,214.0,WeatherDisplay:10.37,2013-03-11 17:55:00,
2013-03-11 08:00:00,64.5,60.9,29.99,North,355,3.5,3.5,88,0.00,CLR,,0.00,236.0,WeatherDisplay:10.37,2013-03-11 18:00:00,
2013-03-11 08:05:00,65.2,61.2,29.99,North,5,4.6,4.6,87,0.00,CLR,,0.00,251.0,WeatherDisplay:10.37,2013-03-11 18:05:00,
2013-03-11 08:10:00,65.8,61.5,29.99,North,9,4.0,4.0,86,0.00,CLR,,0.00,267.0,WeatherDisplay:10.37,2013-03-11 18:10:00,
2013-03-11 08:15:00,66.3,61.7,30.00,NNW,348,4.6,4.6,85,0.00,CLR,,0.00,287.0,WeatherDisplay:10.37,2013-03-11 18:15:00,
2013-03-11 08:20:00,66.7,61.7,30.00,NNW,346,1.1,0.0,84,0.00,CLR,,0.00,287.0,WeatherDisplay:10.37,2013-03-11 18:20:00,
2013-03-11 08:25:00,67.1,61.8,30.00,NNW,346,0.0,0.0,83,0.00,CLR,,0.00,330.0,WeatherDisplay:10.37,2013-03-11 18:25:00,
2013-03-11 08:30:00,67.5,61.5,30.00,NNW,346,0.0,0.0,81,0.00,CLR,,0.00,411.0,WeatherDisplay:10.37,2013-03-11 18:30:00,
2013-03-11 08:35:00,67.9,61.5,30.01,NNW,346,0.0,0.1,80,0.00,CLR,,0.00,234.0,WeatherDisplay:10.37,2013-03-11 18:35:00,
2013-03-11 08:40:00,68.3,60.8,30.01,NNW,346,0.0,0.0,77,0.00,SCT,,0.00,199.0,WeatherDisplay:10.37,2013-03-11 18:40:00,
2013-03-11 08:45:00,68.6,60.4,30.01,NNW,346,2.0,2.0,75,0.00,SCT,,0.00,216.0,WeatherDisplay:10.37,2013-03-11 18:45:00,
2013-03-11 08:50:00,68.9,60.3,30.01,NNW,346,1.0,1.0,74,0.00,CLR,,0.00,517.0,WeatherDisplay:10.37,2013-03-11 18:50:00,
2013-03-11 08:55:00,69.4,60.0,30.02,SSW,212,3.5,3.5,72,0.00,CLR,,0.00,318.0,WeatherDisplay:10.37,2013-03-11 18:55:00,
2013-03-11 09:00:00,69.8,60.4,30.02,SSW,212,0.0,0.0,72,0.00,SCT,,0.00,181.0,WeatherDisplay:10.37,2013-03-11 19:00:00,
2013-03-11 09:05:00,70.1,61.4,30.02,ESE,119,3.5,3.5,74,0.00,SCT,,0.00,269.0,WeatherDisplay:10.37,2013-03-11 19:05:00,
2013-03-11 09:10:00,70.3,62.0,30.02,South,183,3.5,3.5,75,0.00,CLR,,0.00,408.0,WeatherDisplay:10.37,2013-03-11 19:10:00,
2013-03-11 09:15:00,70.3,62.0,30.02,South,182,3.5,3.5,75,0.00,CLR,,0.00,550.0,WeatherDisplay:10.37,2013-03-11 19:15:00,
2013-03-11 09:20:00,70.3,62.0,30.02,South,179,2.3,2.3,75,0.00,CLR,,0.00,592.0,WeatherDisplay:10.37,2013-03-11 19:20:00,
2013-03-11 09:25:00,70.4,62.1,30.02,SSW,209,3.5,3.5,75,0.00,SCT,,0.00,311.0,WeatherDisplay:10.37,2013-03-11 19:25:00,
2013-03-11 09:30:00,70.6,62.7,30.02,SSE,159,2.3,2.3,76,0.00,CLR,,0.00,448.0,WeatherDisplay:10.37,2013-03-11 19:30:00,
2013-03-11 09:35:00,70.8,62.9,30.02,SE,131,3.5,3.5,76,0.00,CLR,,0.00,617.0,WeatherDisplay:10.37,2013-03-11 19:35:00,
2013-03-11 09:40:00,71.1,62.8,30.02,ESE,107,2.3,2.3,75,0.00,CLR,,0.00,640.0,WeatherDisplay:10.37,2013-03-11 19:40:00,
2013-03-11 09:45:00,71.5,63.2,30.02,ESE,119,3.5,3.5,75,0.00,CLR,,0.00,629.0,WeatherDisplay:10.37,2013-03-11 19:45:00,
2013-03-11 09:50:00,71.8,62.7,30.02,East,79,2.3,2.3,73,0.00,CLR,,0.00,645.0,WeatherDisplay:10.37,2013-03-11 19:50:00,
2013-03-11 09:55:00,72.2,63.1,30.02,SSW,194,3.5,3.5,73,0.00,CLR,,0.00,671.0,WeatherDisplay:10.37,2013-03-11 19:55:00,
2013-03-11 10:00:00,72.5,63.7,30.02,ESE,121,3.5,3.5,74,0.00,CLR,,0.00,694.0,WeatherDisplay:10.37,2013-03-11 20:00:00,
2013-03-11 10:05:00,72.8,63.2,30.03,East,80,3.5,3.5,72,0.00,CLR,,0.00,740.0,WeatherDisplay:10.37,2013-03-11 20:05:00,
2013-03-11 10:10:00,73.0,63.4,30.02,ESE,102,4.6,4.6,72,0.00,CLR,,0.00,800.0,WeatherDisplay:10.37,2013-03-11 20:10:00,
2013-03-11 10:15:00,73.0,63.0,30.03,East,96,3.5,3.5,71,0.00,BKN,,0.00,258.0,WeatherDisplay:10.37,2013-03-11 20:15:00,
2013-03-11 10:20:00,72.9,62.9,30.03,South,188,3.5,0.0,71,0.00,BKN,,0.00,278.0,WeatherDisplay:10.37,2013-03-11 20:20:00,
2013-03-11 10:25:00,73.1,64.3,30.03,South,172,3.5,3.5,74,0.00,SCT,,0.00,410.0,WeatherDisplay:10.37,2013-03-11 20:25:00,
2013-03-11 10:30:00,73.3,64.1,30.03,SE,134,3.5,3.5,73,0.00,BKN,,0.00,357.0,WeatherDisplay:10.37,2013-03-11 20:30:00,
2013-03-11 10:35:00,73.4,64.2,30.02,East,101,2.3,2.3,73,0.00,CLR,,0.00,939.0,WeatherDisplay:10.37,2013-03-11 20:35:00,
2013-03-11 10:40:00,73.5,63.5,30.02,ESE,119,3.5,3.5,71,0.00,BKN,,0.00,301.0,WeatherDisplay:10.37,2013-03-11 20:40:00,
2013-03-11 10:45:00,73.3,63.3,30.02,East,92,3.5,3.5,71,0.00,CLR,,0.00,833.0,WeatherDisplay:10.37,2013-03-11 20:45:00,
2013-03-11 10:50:00,73.1,63.1,30.02,SE,134,2.3,2.3,71,0.00,FEW,,0.00,522.0,WeatherDisplay:10.37,2013-03-11 20:50:00,
2013-03-11 10:55:00,73.0,63.0,30.02,SSW,196,4.6,4.6,71,0.00,OVC,,0.00,239.0,WeatherDisplay:10.37,2013-03-11 20:55:00,
2013-03-11 11:00:00,72.6,62.3,30.02,SSE,165,4.6,4.6,70,0.00,BKN,,0.00,265.0,WeatherDisplay:10.37,2013-03-11 21:00:00,
2013-03-11 11:05:00,72.4,62.5,30.02,SSE,166,5.8,5.8,71,0.00,CLR,,0.00,846.0,WeatherDisplay:10.37,2013-03-11 21:05:00,
2013-03-11 11:10:00,72.5,62.6,30.02,South,184,3.5,3.5,71,0.00,CLR,,0.00,863.0,WeatherDisplay:10.37,2013-03-11 21:10:00,
2013-03-11 11:15:00,72.8,62.8,30.01,SSE,155,3.5,3.5,71,0.00,CLR,,0.00,919.0,WeatherDisplay:10.37,2013-03-11 21:15:00,
2013-03-11 11:20:00,73.1,62.7,30.02,South,191,3.5,3.5,70,0.00,BKN,,0.00,357.0,WeatherDisplay:10.37,2013-03-11 21:20:00,
2013-03-11 11:25:00,73.2,62.4,30.01,SSW,202,4.6,4.6,69,0.00,CLR,,0.00,947.0,WeatherDisplay:10.37,2013-03-11 21:25:00,
2013-03-11 11:30:00,73.6,62.8,30.01,SSW,193,5.8,5.8,69,0.00,CLR,,0.00,895.0,WeatherDisplay:10.37,2013-03-11 21:30:00,
2013-03-11 11:35:00,73.8,63.0,30.01,SSW,213,4.0,4.0,69,0.00,CLR,,0.00,896.0,WeatherDisplay:10.37,2013-03-11 21:35:00,
2013-03-11 11:40:00,74.0,63.2,30.00,South,184,5.0,5.0,69,0.00,CLR,,0.00,891.0,WeatherDisplay:10.37,2013-03-11 21:40:00,
2013-03-11 11:45:00,74.4,63.6,30.00,SE,127,5.8,5.8,69,0.00,CLR,,0.00,898.0,WeatherDisplay:10.37,2013-03-11 21:45:00,
2013-03-11 11:50:00,74.7,63.4,30.00,South,175,6.9,6.9,68,0.00,CLR,,0.00,925.0,WeatherDisplay:10.37,2013-03-11 21:50:00,
2013-03-11 11:55:00,74.8,63.5,30.00,SSW,196,6.0,6.0,68,0.00,CLR,,0.00,930.0,WeatherDisplay:10.37,2013-03-11 21:55:00,
2013-03-11 12:00:00,74.7,63.0,30.00,South,178,6.9,6.9,67,0.00,CLR,,0.00,932.0,WeatherDisplay:10.37,2013-03-11 22:00:00,
2013-03-11 12:05:00,74.8,63.5,30.00,SW,215,4.6,4.6,68,0.00,CLR,,0.00,946.0,WeatherDisplay:10.37,2013-03-11 22:05:00,
2013-03-11 12:10:00,75.0,63.7,30.00,SSE,162,5.8,5.8,68,0.00,CLR,,0.00,953.0,WeatherDisplay:10.37,2013-03-11 22:10:00,
2013-03-11 12:15:00,75.3,63.6,30.00,SSW,200,8.1,8.1,67,0.00,CLR,,0.00,951.0,WeatherDisplay:10.37,2013-03-11 22:15:00,
2013-03-11 12:20:00,75.2,63.9,30.00,SE,144,4.6,4.6,68,0.00,CLR,,0.00,944.0,WeatherDisplay:10.37,2013-03-11 22:20:00,
2013-03-11 12:25:00,75.3,64.0,30.00,SW,221,6.9,6.9,68,0.00,CLR,,0.00,944.0,WeatherDisplay:10.37,2013-03-11 22:25:00,
2013-03-11 12:30:00,75.2,63.1,29.99,WNW,285,6.9,6.9,66,0.00,CLR,,0.00,956.0,WeatherDisplay:10.37,2013-03-11 22:30:00,
2013-03-11 12:35:00,75.4,63.2,29.99,South,183,11.5,11.5,66,0.00,CLR,,0.00,947.0,WeatherDisplay:10.37,2013-03-11 22:35:00,
2013-03-11 12:40:00,75.4,63.7,29.99,WSW,248,10.4,10.4,67,0.00,CLR,,0.00,939.0,WeatherDisplay:10.37,2013-03-11 22:40:00,
2013-03-11 12:45:00,75.5,63.8,29.99,SW,217,10.4,10.4,67,0.00,CLR,,0.00,940.0,WeatherDisplay:10.37,2013-03-11 22:45:00,
2013-03-11 12:50:00,75.5,63.8,29.99,SSW,200,10.4,10.4,67,0.00,CLR,,0.00,953.0,WeatherDisplay:10.37,2013-03-11 22:50:00,
2013-03-11 12:55:00,75.2,63.5,29.99,South,170,9.2,9.2,67,0.00,CLR,,0.00,953.0,WeatherDisplay:10.37,2013-03-11 22:55:00,
2013-03-11 13:00:00,75.0,63.3,29.98,SW,220,9.2,9.2,67,0.00,CLR,,0.00,946.0,WeatherDisplay:10.37,2013-03-11 23:00:00,
2013-03-11 13:05:00,75.0,63.7,29.98,South,181,11.5,11.5,68,0.00,CLR,,0.00,937.0,WeatherDisplay:10.37,2013-03-11 23:05:00,
2013-03-11 13:10:00,75.1,63.4,29.98,South,190,10.0,10.0,67,0.00,CLR,,0.00,935.0,WeatherDisplay:10.37,2013-03-11 23:10:00,
2013-03-11 13:15:00,75.1,62.5,29.98,WSW,250,10.4,10.4,65,0.00,CLR,,0.00,930.0,WeatherDisplay:10.37,2013-03-11 23:15:00,
2013-03-11 13:20:00,74.9,62.8,29.97,SW,222,10.4,10.4,66,0.00,CLR,,0.00,926.0,WeatherDisplay:10.37,2013-03-11 23:20:00,
2013-03-11 13:25:00,74.7,63.0,29.97,SW,224,5.8,5.8,67,0.00,CLR,,0.00,919.0,WeatherDisplay:10.37,2013-03-11 23:25:00,
2013-03-11 13:30:00,75.2,63.9,29.96,SSW,213,7.0,7.0,68,0.00,CLR,,0.00,912.0,WeatherDisplay:10.37,2013-03-11 23:30:00,
2013-03-11 13:35:00,75.6,64.3,29.96,SSW,192,9.2,9.2,68,0.00,CLR,,0.00,907.0,WeatherDisplay:10.37,2013-03-11 23:35:00,
2013-03-11 13:40:00,75.8,63.6,29.96,SSW,213,9.2,9.2,66,0.00,CLR,,0.00,900.0,WeatherDisplay:10.37,2013-03-11 23:40:00,
2013-03-11 13:45:00,75.8,63.6,29.96,South,185,10.4,10.4,66,0.00,CLR,,0.00,905.0,WeatherDisplay:10.37,2013-03-11 23:45:00,
2013-03-11 13:50:00,75.7,64.0,29.95,SSW,193,10.4,10.4,67,0.00,CLR,,0.00,900.0,WeatherDisplay:10.37,2013-03-11 23:50:00,
2013-03-11 13:55:00,75.7,64.4,29.95,SW,215,8.1,8.1,68,0.00,CLR,,0.00,891.0,WeatherDisplay:10.37,2013-03-11 23:55:00,
2013-03-11 14:00:00,75.8,64.1,29.94,SW,219,4.6,4.6,67,0.00,CLR,,0.00,884.0,WeatherDisplay:10.37,2013-03-12 00:00:00,
2013-03-11 14:05:00,76.2,64.0,29.94,WSW,238,8.1,8.1,66,0.00,CLR,,0.00,874.0,WeatherDisplay:10.37,2013-03-12 00:05:00,
2013-03-11 14:10:00,76.3,64.5,29.94,SSW,196,9.2,9.2,67,0.00,CLR,,0.00,861.0,WeatherDisplay:10.37,2013-03-12 00:10:00,
2013-03-11 14:15:00,76.4,64.6,29.94,SSW,211,5.8,5.8,67,0.00,CLR,,0.00,853.0,WeatherDisplay:10.37,2013-03-12 00:15:00,
2013-03-11 14:20:00,76.7,65.3,29.94,WSW,253,6.9,6.9,68,0.00,CLR,,0.00,851.0,WeatherDisplay:10.37,2013-03-12 00:20:00,
2013-03-11 14:25:00,76.7,64.5,29.94,SW,215,11.5,11.5,66,0.00,CLR,,0.00,840.0,WeatherDisplay:10.37,2013-03-12 00:25:00,
2013-03-11 14:30:00,76.6,63.5,29.94,SW,226,8.1,8.1,64,0.00,CLR,,0.00,830.0,WeatherDisplay:10.37,2013-03-12 00:30:00,
2013-03-11 14:35:00,76.6,64.8,29.94,SW,225,6.9,6.9,67,0.00,CLR,,0.00,819.0,WeatherDisplay:10.37,2013-03-12 00:35:00,
2013-03-11 14:40:00,76.7,64.9,29.93,WSW,239,5.8,5.8,67,0.00,CLR,,0.00,810.0,WeatherDisplay:10.37,2013-03-12 00:40:00,
2013-03-11 14:45:00,76.7,63.6,29.93,WSW,252,11.5,11.5,64,0.00,CLR,,0.00,795.0,WeatherDisplay:10.37,2013-03-12 00:45:00,
2013-03-11 14:50:00,76.5,63.9,29.94,WSW,238,11.5,11.5,65,0.00,CLR,,0.00,793.0,WeatherDisplay:10.37,2013-03-12 00:50:00,
2013-03-11 14:55:00,76.4,63.3,29.93,SW,227,9.2,9.2,64,0.00,CLR,,0.00,788.0,WeatherDisplay:10.37,2013-03-12 00:55:00,
2013-03-11 15:00:00,76.3,63.7,29.93,WSW,255,11.5,11.5,65,0.00,CLR,,0.00,772.0,WeatherDisplay:10.37,2013-03-12 01:00:00,
2013-03-11 15:05:00,76.2,63.1,29.93,SW,220,10.4,10.4,64,0.00,CLR,,0.00,789.0,WeatherDisplay:10.37,2013-03-12 01:05:00,
2013-03-11 15:10:00,75.9,62.8,29.93,SW,221,9.0,9.0,64,0.00,CLR,,0.00,626.0,WeatherDisplay:10.37,2013-03-12 01:10:00,
2013-03-11 15:15:00,75.6,62.6,29.93,SW,236,9.2,9.2,64,0.00,CLR,,0.00,728.0,WeatherDisplay:10.37,2013-03-12 01:15:00,
2013-03-11 15:20:00,75.3,63.2,29.93,SSW,211,8.1,8.1,66,0.00,CLR,,0.00,728.0,WeatherDisplay:10.37,2013-03-12 01:20:00,
2013-03-11 15:25:00,74.9,63.2,29.93,SW,225,11.5,11.5,67,0.00,CLR,,0.00,726.0,WeatherDisplay:10.37,2013-03-12 01:25:00,
2013-03-11 15:30:00,74.9,63.2,29.93,SW,218,8.1,8.1,67,0.00,CLR,,0.00,671.0,WeatherDisplay:10.37,2013-03-12 01:30:00,
2013-03-11 15:35:00,74.9,62.8,29.93,South,184,9.2,9.2,66,0.00,CLR,,0.00,659.0,WeatherDisplay:10.37,2013-03-12 01:35:00,
2013-03-11 15:40:00,74.9,63.2,29.92,WSW,242,6.0,6.0,67,0.00,CLR,,0.00,636.0,WeatherDisplay:10.37,2013-03-12 01:40:00,
2013-03-11 15:45:00,75.0,62.9,29.92,SW,233,10.4,10.4,66,0.00,CLR,,0.00,621.0,WeatherDisplay:10.37,2013-03-12 01:45:00,
2013-03-11 15:50:00,75.2,63.9,29.92,WSW,242,5.8,5.8,68,0.00,CLR,,0.00,599.0,WeatherDisplay:10.37,2013-03-12 01:50:00,
2013-03-11 15:55:00,75.2,62.6,29.92,SSW,209,8.1,8.1,65,0.00,CLR,,0.00,584.0,WeatherDisplay:10.37,2013-03-12 01:55:00,
2013-03-11 16:00:00,75.2,63.5,29.92,SW,221,6.9,6.9,67,0.00,CLR,,0.00,571.0,WeatherDisplay:10.37,2013-03-12 02:00:00,
2013-03-11 16:05:00,75.1,63.0,29.92,SSW,195,8.1,8.1,66,0.00,CLR,,0.00,559.0,WeatherDisplay:10.37,2013-03-12 02:05:00,
2013-03-11 16:10:00,75.0,63.3,29.93,WSW,244,6.9,6.9,67,0.00,CLR,,0.00,541.0,WeatherDisplay:10.37,2013-03-12 02:10:00,
2013-03-11 16:15:00,75.0,62.9,29.93,SW,236,8.1,8.1,66,0.00,CLR,,0.00,527.0,WeatherDisplay:10.37,2013-03-12 02:15:00,
2013-03-11 16:20:00,74.9,63.2,29.93,SSW,200,10.4,10.4,67,0.00,CLR,,0.00,527.0,WeatherDisplay:10.37,2013-03-12 02:20:00,
2013-03-11 16:25:00,74.6,62.9,29.93,SSW,213,11.5,11.5,67,0.00,CLR,,0.00,522.0,WeatherDisplay:10.37,2013-03-12 02:25:00,
2013-03-11 16:30:00,74.5,63.2,29.93,SW,219,11.5,11.5,68,0.00,CLR,,0.00,478.0,WeatherDisplay:10.37,2013-03-12 02:30:00,
2013-03-11 16:35:00,74.3,63.5,29.93,WSW,240,7.0,7.0,69,0.00,CLR,,0.00,466.0,WeatherDisplay:10.37,2013-03-12 02:35:00,
2013-03-11 16:40:00,74.2,63.4,29.93,SW,216,9.2,9.2,69,0.00,CLR,,0.00,476.0,WeatherDisplay:10.37,2013-03-12 02:40:00,
2013-03-11 16:45:00,74.2,63.4,29.93,SW,219,8.1,8.1,69,0.00,CLR,,0.00,454.0,WeatherDisplay:10.37,2013-03-12 02:45:00,
2013-03-11 16:50:00,73.9,63.1,29.93,SSW,208,6.9,6.9,69,0.00,CLR,,0.00,429.0,WeatherDisplay:10.37,2013-03-12 02:50:00,
2013-03-11 16:55:00,73.5,62.7,29.94,WSW,239,9.2,9.2,69,0.00,CLR,,0.00,432.0,WeatherDisplay:10.37,2013-03-12 02:55:00,
2013-03-11 17:00:00,73.4,63.0,29.93,SSW,207,10.4,10.4,70,0.00,CLR,,0.00,383.0,WeatherDisplay:10.37,2013-03-12 03:00:00,
2013-03-11 17:05:00,73.3,62.9,29.94,SSW,203,9.2,9.2,70,0.00,CLR,,0.00,350.0,WeatherDisplay:10.37,2013-03-12 03:05:00,
2013-03-11 17:10:00,73.0,62.6,29.94,WSW,242,9.2,9.2,70,0.00,CLR,,0.00,325.0,WeatherDisplay:10.37,2013-03-12 03:10:00,
2013-03-11 17:15:00,72.9,62.9,29.93,SSW,198,8.1,8.1,71,0.00,CLR,,0.00,295.0,WeatherDisplay:10.37,2013-03-12 03:15:00,
2013-03-11 17:20:00,72.8,62.8,29.94,South,182,4.6,4.6,71,0.00,CLR,,0.00,267.0,WeatherDisplay:10.37,2013-03-12 03:20:00,
2013-03-11 17:25:00,72.6,62.7,29.94,SSW,194,7.0,7.0,71,0.00,CLR,,0.00,248.0,WeatherDisplay:10.37,2013-03-12 03:25:00,
2013-03-11 17:30:00,72.4,62.5,29.94,South,185,5.8,5.8,71,0.00,FEW,,0.00,227.0,WeatherDisplay:10.37,2013-03-12 03:30:00,
2013-03-11 17:35:00,72.1,62.6,29.94,West,273,4.0,4.0,72,0.00,CLR,,0.00,149.0,WeatherDisplay:10.37,2013-03-12 03:35:00,
2013-03-11 17:40:00,71.9,62.4,29.94,SW,223,6.9,6.9,72,0.00,CLR,,0.00,134.0,WeatherDisplay:10.37,2013-03-12 03:40:00,
2013-03-11 17:45:00,71.7,62.6,29.94,SW,227,4.6,4.6,73,0.00,SCT,,0.00,74.0,WeatherDisplay:10.37,2013-03-12 03:45:00,
2013-03-11 17:50:00,71.5,62.4,29.95,WSW,239,4.6,4.6,73,0.00,CLR,,0.00,79.0,WeatherDisplay:10.37,2013-03-12 03:50:00,
2013-03-11 17:55:00,71.2,62.5,29.95,West,259,5.8,5.8,74,0.00,BKN,,0.00,47.0,WeatherDisplay:10.37,2013-03-12 03:55:00,
2013-03-11 18:00:00,71.0,62.3,29.95,SW,221,2.0,6.0,74,0.00,,,0.00,32.0,WeatherDisplay:10.37,2013-03-12 04:00:00,
2013-03-11 18:05:00,70.7,62.4,29.95,West,269,3.5,3.5,75,0.00,,,0.00,28.0,WeatherDisplay:10.37,2013-03-12 04:05:00,
2013-03-11 18:10:00,70.4,62.1,29.95,SW,234,5.8,5.8,75,0.00,BKN,,0.00,26.0,WeatherDisplay:10.37,2013-03-12 04:10:00,
2013-03-11 18:15:00,70.1,62.2,29.95,WSW,239,4.0,4.0,76,0.00,BKN,,0.00,21.0,WeatherDisplay:10.37,2013-03-12 04:15:00,
2013-03-11 18:20:00,69.9,62.0,29.95,WSW,256,3.5,3.5,76,0.00,BKN,,0.00,16.0,WeatherDisplay:10.37,2013-03-12 04:20:00,
2013-03-11 18:25:00,69.7,61.8,29.95,WSW,238,3.5,3.5,76,0.00,,,0.00,11.0,WeatherDisplay:10.37,2013-03-12 04:25:00,
2013-03-11 18:30:00,69.5,62.0,29.95,West,259,4.6,4.6,77,0.00,BKN,,0.00,9.0,WeatherDisplay:10.37,2013-03-12 04:30:00,
2013-03-11 18:35:00,69.3,61.8,29.95,SW,222,4.6,4.6,77,0.00,BKN,,0.00,5.0,WeatherDisplay:10.37,2013-03-12 04:35:00,
2013-03-11 18:40:00,69.2,61.7,29.95,SW,222,0.0,0.0,77,0.00,,,0.00,0.0,WeatherDisplay:10.37,2013-03-12 04:40:00,
2013-03-11 18:45:00,69.0,61.5,29.95,WSW,257,2.3,2.3,77,0.00,,,0.00,0.0,WeatherDisplay:10.37,2013-03-12 04:45:00,
2013-03-11 18:50:00,68.9,61.8,29.96,WSW,245,2.3,2.3,78,0.00,,,0.00,0.0,WeatherDisplay:10.37,2013-03-12 04:50:00,
2013-03-11 18:55:00,68.8,61.7,29.96,WSW,254,2.3,0.0,78,0.00,,,0.00,0.0,WeatherDisplay:10.37,2013-03-12 04:55:00,
2013-03-11 19:00:00,68.6,61.5,29.96,WNW,282,0.0,0.0,78,0.00,,,0.00,0.0,WeatherDisplay:10.37,2013-03-12 05:00:00,
2013-03-11 19:05:00,68.6,61.5,29.97,WNW,282,2.0,2.0,78,0.00,,,0.00,0.0,WeatherDisplay:10.37,2013-03-12 05:05:00,
2013-03-11 19:10:00,68.4,61.6,29.96,WNW,282,0.0,0.0,79,0.00,,,0.00,0.0,WeatherDisplay:10.37,2013-03-12 05:10:00,
2013-03-11 19:15:00,68.3,61.5,29.97,WNW,282,0.0,0.0,79,0.00,,,0.00,0.0,WeatherDisplay:10.37,2013-03-12 05:15:00,
2013-03-11 19:20:00,68.1,61.3,29.97,WNW,282,0.0,0.0,79,0.00,,,0.00,0.0,WeatherDisplay:10.37,2013-03-12 05:20:00,
2013-03-11 19:25:00,67.9,61.1,29.97,WNW,282,0.0,0.0,79,0.00,,,0.00,0.0,WeatherDisplay:10.37,2013-03-12 05:25:00,
2013-03-11 19:30:00,67.8,61.0,29.98,WNW,282,0.0,0.0,79,0.00,,,0.00,0.0,WeatherDisplay:10.37,2013-03-12 05:30:00,
2013-03-11 19:35:00,67.6,61.2,29.98,WNW,282,2.3,2.3,80,0.00,,,0.00,0.0,WeatherDisplay:10.37,2013-03-12 05:35:00,
2013-03-11 19:40:00,67.4,61.0,29.98,NNW,340,3.5,3.5,80,0.00,,,0.00,0.0,WeatherDisplay:10.37,2013-03-12 05:40:00,
2013-03-11 19:45:00,67.2,61.2,29.98,NNW,343,1.1,1.1,81,0.00,,,0.00,0.0,WeatherDisplay:10.37,2013-03-12 05:45:00,
2013-03-11 19:50:00,67.1,61.1,29.98,NNW,343,3.5,3.5,81,0.00,,,0.00,0.0,WeatherDisplay:10.37,2013-03-12 05:50:00,
2013-03-11 19:55:00,66.9,61.2,29.99,NNW,343,2.0,2.0,82,0.00,,,0.00,0.0,WeatherDisplay:10.37,2013-03-12 05:55:00,
2013-03-11 20:00:00,66.8,61.1,29.99,NNW,343,2.3,2.3,82,0.00,,,0.00,0.0,WeatherDisplay:10.37,2013-03-12 06:00:00,
2013-03-11 20:05:00,66.8,61.1,29.99,NNW,343,2.3,2.3,82,0.00,,,0.00,0.0,WeatherDisplay:10.37,2013-03-12 06:05:00,
2013-03-11 20:10:00,66.7,61.4,29.99,NNW,343,1.1,1.1,83,0.00,,,0.00,0.0,WeatherDisplay:10.37,2013-03-12 06:10:00,
2013-03-11 20:15:00,66.7,61.4,29.99,NNW,343,1.1,0.0,83,0.00,,,0.00,0.0,WeatherDisplay:10.37,2013-03-12 06:15:00,
2013-03-11 20:20:00,66.6,61.3,30.00,NNW,343,2.3,2.3,83,0.00,,,0.00,0.0,WeatherDisplay:10.37,2013-03-12 06:20:00,
2013-03-11 20:25:00,66.5,61.2,30.00,NNW,343,3.5,3.5,83,0.00,,,0.00,0.0,WeatherDisplay:10.37,2013-03-12 06:25:00,
2013-03-11 20:30:00,66.4,61.1,30.00,NNW,343,3.5,3.5,83,0.00,,,0.00,0.0,WeatherDisplay:10.37,2013-03-12 06:30:00,
2013-03-11 20:35:00,66.2,60.9,30.00,NNW,345,3.5,3.5,83,0.00,,,0.00,0.0,WeatherDisplay:10.37,2013-03-12 06:35:00,
2013-03-11 20:40:00,66.0,60.7,30.00,NNW,346,3.5,3.5,83,0.00,,,0.00,0.0,WeatherDisplay:10.37,2013-03-12 06:40:00,
2013-03-11 20:45:00,65.9,60.9,30.00,NNW,346,3.5,3.5,84,0.00,,,0.00,0.0,WeatherDisplay:10.37,2013-03-12 06:45:00,
2013-03-11 20:50:00,65.8,60.8,30.00,NNW,346,3.5,3.5,84,0.00,,,0.00,0.0,WeatherDisplay:10.37,2013-03-12 06:50:00,
2013-03-11 20:55:00,65.7,60.7,30.00,North,355,3.5,3.5,84,0.00,,,0.00,0.0,WeatherDisplay:10.37,2013-03-12 06:55:00,
2013-03-11 21:00:00,65.5,60.5,30.01,North,355,2.3,2.3,84,0.00,,,0.00,0.0,WeatherDisplay:10.37,2013-03-12 07:00:00,
2013-03-11 21:05:00,65.4,60.4,30.01,North,355,3.5,3.5,84,0.00,,,0.00,0.0,WeatherDisplay:10.37,2013-03-12 07:05:00,
2013-03-11 21:10:00,65.3,60.7,30.01,North,355,2.3,2.3,85,0.00,,,0.00,0.0,WeatherDisplay:10.37,2013-03-12 07:10:00,
2013-03-11 21:15:00,65.2,60.6,30.01,North,355,1.0,1.0,85,0.00,,,0.00,0.0,WeatherDisplay:10.37,2013-03-12 07:15:00,
2013-03-11 21:20:00,65.1,60.5,30.02,North,355,2.3,2.3,85,0.00,,,0.00,0.0,WeatherDisplay:10.37,2013-03-12 07:20:00,
2013-03-11 21:25:00,65.1,60.5,30.02,North,355,2.3,2.3,85,0.00,,,0.00,0.0,WeatherDisplay:10.37,2013-03-12 07:25:00,
2013-03-11 21:30:00,65.0,60.4,30.02,North,355,1.1,1.1,85,0.00,,,0.00,0.0,WeatherDisplay:10.37,2013-03-12 07:30:00,
2013-03-11 21:35:00,64.9,60.3,30.02,North,355,0.0,0.0,85,0.00,,,0.00,0.0,WeatherDisplay:10.37,2013-03-12 07:35:00,
2013-03-11 21:40:00,64.9,60.3,30.02,North,355,0.0,0.0,85,0.00,,,0.00,0.0,WeatherDisplay:10.37,2013-03-12 07:40:00,
2013-03-11 21:45:00,64.8,60.5,30.02,North,355,1.1,1.1,86,0.00,,,0.00,0.0,WeatherDisplay:10.37,2013-03-12 07:45:00,
2013-03-11 21:50:00,64.7,60.4,30.02,North,355,0.0,0.0,86,0.00,,,0.00,0.0,WeatherDisplay:10.37,2013-03-12 07:50:00,
2013-03-11 21:55:00,64.7,60.4,30.02,North,355,1.1,1.1,86,0.00,,,0.00,0.0,WeatherDisplay:10.37,2013-03-12 07:55:00,
2013-03-11 22:00:00,64.7,60.4,30.02,North,355,1.1,0.0,86,0.00,,,0.00,0.0,WeatherDisplay:10.37,2013-03-12 08:00:00,
2013-03-11 22:05:00,64.7,60.4,30.02,North,355,1.1,1.1,86,0.00,,,0.00,0.0,WeatherDisplay:10.37,2013-03-12 08:05:00,
2013-03-11 22:10:00,64.7,60.4,30.02,North,355,2.0,2.0,86,0.00,,,0.00,0.0,WeatherDisplay:10.37,2013-03-12 08:10:00,
2013-03-11 22:15:00,64.6,60.6,30.02,North,355,2.3,2.3,87,0.00,,,0.00,0.0,WeatherDisplay:10.37,2013-03-12 08:15:00,
2013-03-11 22:20:00,64.7,60.7,30.02,North,355,1.1,1.1,87,0.00,,,0.00,0.0,WeatherDisplay:10.37,2013-03-12 08:20:00,
2013-03-11 22:25:00,64.7,60.7,30.02,North,355,3.5,3.5,87,0.00,,,0.00,0.0,WeatherDisplay:10.37,2013-03-12 08:25:00,
2013-03-11 22:30:00,64.7,60.7,30.02,North,355,2.3,2.3,87,0.00,,,0.00,0.0,WeatherDisplay:10.37,2013-03-12 08:30:00,
2013-03-11 22:35:00,64.6,60.6,30.02,North,355,2.3,2.3,87,0.00,,,0.00,0.0,WeatherDisplay:10.37,2013-03-12 08:35:00,
2013-03-11 22:40:00,64.6,60.6,30.02,North,355,2.3,2.3,87,0.00,,,0.00,0.0,WeatherDisplay:10.37,2013-03-12 08:40:00,
2013-03-11 22:45:00,64.5,60.5,30.01,North,355,2.3,2.3,87,0.00,,,0.00,0.0,WeatherDisplay:10.37,2013-03-12 08:45:00,
2013-03-11 22:50:00,64.6,60.6,30.01,North,355,3.5,3.5,87,0.00,,,0.00,0.0,WeatherDisplay:10.37,2013-03-12 08:50:00,
2013-03-11 22:55:00,64.6,60.6,30.01,North,350,3.5,3.5,87,0.00,,,0.00,0.0,WeatherDisplay:10.37,2013-03-12 08:55:00,
2013-03-11 23:00:00,64.6,60.6,30.01,North,349,3.5,3.5,87,0.00,,,0.00,0.0,WeatherDisplay:10.37,2013-03-12 09:00:00,
2013-03-11 23:05:00,64.7,60.7,30.00,North,349,3.5,3.5,87,0.00,,,0.00,0.0,WeatherDisplay:10.37,2013-03-12 09:05:00,
2013-03-11 23:10:00,64.7,60.7,30.01,North,349,2.3,2.3,87,0.00,,,0.00,0.0,WeatherDisplay:10.37,2013-03-12 09:10:00,
2013-03-11 23:15:00,64.7,60.7,30.01,North,349,3.5,3.5,87,0.00,,,0.00,0.0,WeatherDisplay:10.37,2013-03-12 09:15:00,
2013-03-11 23:20:00,64.8,60.8,30.01,North,349,3.5,3.5,87,0.00,,,0.00,0.0,WeatherDisplay:10.37,2013-03-12 09:20:00,
2013-03-11 23:25:00,64.8,60.8,30.01,North,349,1.1,1.1,87,0.00,,,0.00,0.0,WeatherDisplay:10.37,2013-03-12 09:25:00,
2013-03-11 23:30:00,64.8,60.8,30.00,North,349,3.5,3.5,87,0.00,,,0.00,0.0,WeatherDisplay:10.37,2013-03-12 09:30:00,
2013-03-11 23:35:00,64.8,61.2,30.01,North,349,3.5,3.5,88,0.00,,,0.00,0.0,WeatherDisplay:10.37,2013-03-12 09:35:00,
2013-03-11 23:40:00,64.8,61.2,30.01,North,349,2.3,2.3,88,0.00,,,0.00,0.0,WeatherDisplay:10.37,2013-03-12 09:40:00,
2013-03-11 23:45:00,64.8,61.2,30.00,North,349,2.3,2.3,88,0.00,,,0.00,0.0,WeatherDisplay:10.37,2013-03-12 09:45:00,
2013-03-11 23:50:00,64.7,61.1,30.00,North,349,2.3,2.3,88,0.00,,,0.00,0.0,WeatherDisplay:10.37,2013-03-12 09:50:00,
2013-03-11 23:55:00,64.7,61.1,30.00,North,349,2.3,2.3,88,0.00,,,0.00,0.0,WeatherDisplay:10.37,2013-03-12 09:55:00,